ATLAS 5 CENTAUR DEB, 44677

Orbit data source: Space-Track

ATLAS 5 CENTAUR DEB, 44677 is space debris in HEO originally from a launch on Wed, 17 Oct 2018 UTC launched from the Air Force Eastern Test Range (AFETR). Debris objects in space refer to the collection of defunct objects orbiting the Earth. Examples of debris include non-operational satellites, rocket bodies, and fragments generated from explosions, collisions, or faulty payload assembly.

Loading next visibility...
Identifier
44677, 2018-079AP
Orbit
HEO
Country
Flag of USUS
Related business
Flag of USUnited Launch Alliance/Lockheed Martin (US)
Manufacturer
ULA Decatur
Mission
Spacecraft
Bus & Motor
Unknown
Mass
Unknown
Launch date (UTC)
2018-10-17 (8 years ago)
Launch vehicle
Unknown
Launch site
Air Force Eastern Test Range (AFETR)
Object type
Payload
Rocket body
Debris
Shape & HBR
Unknown shape, 1.1 m
Radar Cross Section
Medium (>0.1 m² and <1 m²)

Expand to show TLE details & history
Last TLE update: 5 days ago

TLE from 5 days ago
0 ATLAS 5 CENTAUR DEB
1 44677U 18079AP  26165.02160404 -.00000092  00000-0  00000-0 0  9992
2 44677  13.1177  56.6729 4379340 269.7909  41.5726  1.78511186 45728
Epoch: 2026-06-14T00:31Z
TLE epoch observation values (Epoch: 2026-06-14T00:31:06.589Z)
Latitude
0.00005°
Longitude
146.4919°
Altitude
16,889.319 km
Speed
4.514 km/s
True Right ascension
03h 46m 23s
True Declination
0° 00' 00"
Sunlit
Object was in daylight at epoch
Visualization orbit readout
Latitude
Unknown
Longitude
Unknown
Altitude
Unknown
Speed
Unknown
Apparent Right ascension
Unknown
Apparent Declination
Unknown
Sunlit
N/A
Visualization observer readout
Local Sidereal Time
22:59:27
Azimuth
Unknown
Elevation
Unknown
Doppler factor
Unknown
Orbital elements
Apogee altitude
34,900.649 km
Perigee altitude
9,757.097 km
Semi-major axis
28,707.01 km
Eccentricity
0.43793
Inclination
13.1177°
RAAN
56.6729°
Arg. of periapsis
269.7909°
True anomaly
90.1408°
Mean anomaly
41.5726°
Eccentric anomaly
64.15451°
Mean motion
0.44623 °/min
Orbital period
806.75 mins
BSTAR
0
Loading maneuver chart data...
Computing Atmospheric mass density...

Documentation

Showing up to 5 results
|